Regional Weather Roundup
Issued by NWS

Home | Current Version | Previous Version | Graphics & Text | Print | Product List | Glossary On
Versions: 1 2 3 4 5 6 7 8 9 10 11 12 13 14 15 16 17 18 19 20 21 22 23 24 25 26 27 28
000
ASUS45 KBOI 171210
RWRID

IDAHO REGIONAL WEATHER ROUNDUP
NATIONAL WEATHER SERVICE BOISE ID
500 AM MST SUN DEC 17 2017

NOTE: "FAIR" INDICATES FEW OR NO CLOUDS BELOW 12000 FEET
WITH NO SIGNIFICANT WEATHER AND/OR OBSTRUCTIONS TO VISIBILITY

IDZ012-014-171300-
SOUTHWEST IDAHO


CITY           SKY/WX    TMP DP  RH WIND       PRES   REMARKS
BOISE          CLEAR     18  15  88 SE5       30.25S WCI  11
CALDWELL       CLEAR     22  19  89 CALM      30.29S
MOUNTAIN HOME  CLEAR     23  23 100 W7        30.25S WCI  14
$$

IDZ016-017-171300-
SOUTHCENTRAL IDAHO


CITY           SKY/WX    TMP DP  RH WIND       PRES   REMARKS
BURLEY         CLEAR     24  16  71 W8        30.19S WCI  15
JEROME         CLOUDY    22  19  89 S6        30.21R WCI  14
TWIN FALLS     CLEAR     21  14  74 SW12      30.21R WCI   9
$$

IDZ019>023-171300-
SOUTHEAST IDAHO


CITY           SKY/WX    TMP DP  RH WIND       PRES   REMARKS
IDAHO FALLS      N/A     20  19  96 W3        30.17S VSB 1/2
POCATELLO      CLOUDY    26  22  84 SW14      30.19R WCI  14
REXBURG        CLOUDY    21  20  96 SW6       30.15S WCI  13
$$

IDZ006-010-011-018-031-032-171300-
CENTRAL IDAHO MOUNTAINS


CITY           SKY/WX    TMP DP  RH WIND       PRES   REMARKS
MCCALL         CLOUDY     8   4  83 E3        30.16R
HAILEY         CLEAR     14  12  92 NW6       30.13F WCI   5
STANLEY          N/A     -3  -9  75 CALM      30.16R
SALMON         CLOUDY     7   4  87 SE3       30.24R
CHALLIS        CLEAR      9   3  77 NW3       30.17S
$$

IDZ002-004-006-007-026-171300-
NORTHERN IDAHO


CITY           SKY/WX    TMP DP  RH WIND       PRES   REMARKS
LEWISTON       CLOUDY    28  24  85 E9        30.26F WCI  19
LOWELL           N/A     26  23  88 CALM      30.34F
COEUR D`ALENE  LGT SNOW  27  25  92 S10       30.16F FOG     WCI  17
MULLAN PASS    LGT SNOW  20  16  84 VRB7      30.00F FOG     WCI  11
$$




USA.gov is the U.S. government's official web portal to all federal, state and local government web resources and services.